ISS OBJECT XT

Last updated on Sun Apr 12 2026 00:02:13 GMT+0000 (Coordinated Universal Time)

1 66907U 98067XT 26101.43340154 .00287183 00000+0 11915-2 0 9999 2 66907 51.6204 256.9920 0009073 293.1451 66.8596 15.84392842 20340
UTC large
Height (km)
Speed (km/s)
/
Latitude / Longitude
Inclination (degrees)
Orbital Period (minutes)
Azimuth
Elevation
Range (km)
Doppler Factor

Next 0 passes for location: London (51.5072 / 0.1276)

Sorry there are no passes over London.
ISS OBJECT XT